Temp_Advection
nan nan nan nan nan nan nan nan nan nan nan nan nan nan nan nan nan nan nan nan nan nan nan nan nan nan nan nan nan nan nan nan nan nan nan nan nan nan nan nan nan nan
nan -0 0 0 -0 -0 -0 -1 -1 -0 -0 -1 -1 -1 -1 -1 -1 -1 -1 -1 -1 -1 -2 -2 -2 -1 -0 0 -0 -1 -2 -1 -1 -1 -1 -1 -1 -1 -1 -1 -1 nan
nan -0 -0 -0 -0 -0 -0 -0 -0 -1 -1 -1 -1 -1 -1 -1 -1 -1 -1 -1 -1 -1 -1 -2 -2 -1 0 -0 -1 -1 -2 -2 -2 -1 -1 -1 -1 -1 -1 -1 -0 nan
nan -0 -0 -0 -0 -0 -0 -0 -0 -0 -1 -1 -1 -1 -1 -1 -0 -0 -1 -1 -1 -1 -1 -2 -2 -1 -1 -1 -1 -1 -1 -2 -2 -1 -1 -1 -1 -1 -1 -1 -0 nan
nan -0 0 -0 -0 -0 -0 -1 -0 -0 -0 -1 -1 -1 -1 -1 -1 -1 -1 -1 -1 -1 -1 -2 -2 -2 -1 -1 -1 -0 -0 -1 -1 -1 -1 -1 -1 -1 -1 -0 -0 nan
nan -0 0 -0 -0 -0 -0 -1 -0 -0 -0 -1 -1 -1 -1 -1 -1 -1 -1 -1 -1 -1 -2 -2 -2 -2 -2 -1 -1 -1 -0 -1 -1 -1 -1 -1 -1 -1 -1 -0 -0 nan
nan -0 -0 -0 -0 -0 -0 -0 -0 -0 -0 -0 -1 -1 -1 -1 -1 -1 -1 -1 -1 -1 -2 -2 -2 -2 -1 -1 -1 -1 -1 -0 -1 -1 -1 -1 -1 -1 -0 -0 -0 nan
nan -0 -0 -0 -0 -0 -0 -0 -0 -0 -0 -0 -0 -1 -1 -1 -1 -1 -1 -1 -1 -1 -2 -1 -1 -1 -1 -1 -1 -1 -1 -0 -0 -1 -1 -1 -1 -0 -0 -0 -0 nan
nan -0 -0 -0 -0 -0 -0 -0 -0 -0 0 -0 -0 -1 -1 -1 -1 -1 -1 -1 -1 -1 -1 -1 -1 -1 -1 -1 -2 -1 -1 -1 -1 -0 -1 -1 -1 -1 -0 -0 -0 nan
nan -0 -0 -0 -0 0 -0 0 0 -0 0 -0 -0 -0 -1 -1 -0 -0 -1 -1 -1 -1 -1 -1 -1 -1 -1 -1 -1 -1 -1 -1 -1 -0 -0 -1 -1 -1 -1 -0 0 nan
nan -0 -0 -0 -0 0 0 0 0 0 0 0 -0 -0 -1 -1 -1 -1 -1 -1 -1 -1 -1 -1 -1 -1 -1 -2 -1 -1 -1 -1 -0 -0 -0 -0 -1 -1 -0 -0 0 nan
nan -0 -0 -0 -0 -0 0 -0 -0 0 0 0 0 -0 -0 -1 -1 -1 -1 -1 -1 -1 -1 -1 -2 -2 -2 -2 -2 -1 -1 -1 -1 -0 -0 -0 -0 -0 -0 0 0 nan
nan -0 -0 -0 -0 -0 -0 -0 -0 -0 -0 -0 0 -0 -0 -1 -1 -1 -1 -1 -1 -1 -1 -1 -2 -2 -2 -2 -2 -2 -1 -0 -0 -1 -0 -0 -0 -0 -0 -0 0 nan
nan -0 -0 -0 -0 -0 -0 -0 -0 -0 -0 -0 0 -0 -0 -0 -1 -1 -1 -1 -1 -1 -1 -1 -2 -2 -2 -2 -2 -2 -1 0 0 -0 -0 -0 0 0 0 0 -0 nan
nan -0 -0 -1 -0 -0 -0 -0 -0 -0 -0 0 0 0 -0 0 -0 -0 -1 -1 -1 -1 -1 -1 -2 -2 -2 -2 -1 -1 -1 0 0 -0 -0 -0 -0 0 0 -0 -0 nan
nan -1 -1 -0 -0 -0 -0 -0 -0 0 0 0 0 0 0 0 0 0 -0 -1 -0 -0 -1 -1 -1 -1 -1 -1 -1 -1 -1 -0 0 -0 -0 -0 -0 -0 -0 -0 -0 nan
nan -0 -0 -0 0 0 0 0 0 1 1 1 0 0 0 0 0 0 0 -0 -0 -0 -0 -0 -1 -1 -0 -0 -1 -1 -1 -1 -0 -0 -0 -0 -0 -1 -1 -1 -1 nan
nan -0 0 0 1 1 1 1 1 1 1 1 1 1 0 1 0 0 0 0 0 -0 -0 -0 -0 0 0 0 -0 -1 -1 -1 -1 -1 -1 -0 -1 -1 -1 -1 -1 nan
nan 1 1 1 1 1 1 1 1 1 1 1 1 1 1 1 1 1 1 0 0 0 0 0 0 0 0 0 0 -0 -1 -1 -1 -1 -1 -1 -1 -1 -1 -1 -1 nan
nan 1 1 1 1 1 1 1 1 1 1 1 1 1 1 1 1 1 1 1 1 1 1 1 0 0 0 0 0 -0 -0 -1 -1 -2 -1 -1 -1 -1 -1 -1 -1 nan
nan 1 1 1 1 1 1 1 1 1 1 1 1 1 1 1 1 1 1 1 1 0 0 0 0 0 0 0 0 0 -0 -1 -1 -1 -1 -1 -1 -1 -1 -1 -1 nan
nan 1 1 1 1 1 1 1 1 1 1 1 1 1 1 0 0 0 0 0 0 0 -0 0 0 0 0 0 0 0 -0 -1 -1 -1 -1 -1 -1 -1 -1 -1 -0 nan
nan 1 1 1 1 1 1 1 1 1 1 1 0 0 0 0 -0 -0 -0 -0 -0 -0 -0 -0 0 0 0 0 0 -0 -0 -0 -0 -0 -0 -1 -1 -1 -0 -0 0 nan
nan 1 1 1 1 2 1 1 1 1 1 1 0 0 0 0 0 0 0 0 -0 -0 -0 -1 -0 -0 -0 -0 -0 -0 -0 -0 0 -0 -0 -0 -0 -0 -0 -0 0 nan
nan 1 1 1 1 1 1 1 1 1 0 0 0 -0 0 0 0 0 0 0 0 0 0 -0 -1 -0 -0 -0 -0 -0 -0 -0 -0 -0 -0 0 0 0 -0 -0 0 nan
nan nan nan nan nan nan nan nan nan nan nan nan nan nan nan nan nan nan nan nan nan nan nan nan nan nan nan nan nan nan nan nan nan nan nan nan nan nan nan nan nan nan
Wind_Speed
36 35 37 40 41 38 33 30 32 32 29 30 32 32 31 31 31 30 30 30 30 32 35 37 37 36 35 33 32 32 34 36 36 35 34 34 32 32 32 31 30 30
35 37 40 39 35 29 25 24 26 30 32 34 35 35 35 35 35 32 30 29 30 33 35 36 35 33 31 30 30 30 32 34 36 34 31 32 32 32 32 31 31 32
37 38 35 29 26 25 26 27 31 35 37 36 34 33 33 32 30 29 28 29 31 32 34 32 29 26 27 27 28 29 30 32 33 32 29 29 30 31 32 31 31 32
35 32 26 23 25 27 30 33 35 34 30 27 25 24 24 23 24 25 26 28 29 30 30 28 25 24 26 26 26 27 29 30 30 29 28 27 27 29 30 31 32 31
29 24 21 22 26 30 33 33 30 26 24 25 25 25 24 24 25 26 27 28 28 29 29 29 29 27 26 25 25 25 27 28 29 27 26 26 25 26 29 31 31 31
24 23 23 26 30 32 31 28 25 25 28 30 30 31 30 29 29 28 28 28 29 30 30 31 31 27 24 23 23 25 27 28 29 26 25 26 25 26 28 29 30 29
26 27 28 30 30 29 27 27 27 28 30 31 32 32 32 31 31 30 29 28 28 28 28 28 27 23 20 20 21 23 25 27 28 26 26 26 27 27 25 26 28 27
28 28 28 28 27 27 27 28 28 28 29 29 30 28 26 25 27 27 27 26 25 25 24 24 23 21 20 21 21 20 20 24 26 26 27 26 28 30 26 23 26 27
26 25 25 26 26 27 28 27 27 28 28 27 27 25 22 19 19 20 21 21 19 18 19 20 21 22 22 23 22 19 16 18 20 22 25 26 28 30 28 25 26 26
24 25 25 25 26 26 26 26 26 26 25 24 24 23 21 19 19 19 20 20 17 16 18 21 23 24 23 23 23 20 16 14 15 16 20 25 27 28 28 26 24 24
24 25 25 25 24 24 24 23 23 22 21 21 22 22 22 22 22 22 22 22 21 21 22 24 25 25 25 24 23 22 19 15 14 13 14 19 24 27 28 26 24 23
25 25 25 24 24 23 22 22 22 21 21 21 22 23 24 24 23 22 23 23 24 24 25 25 26 27 28 26 24 23 22 18 15 14 14 16 19 22 26 26 23 22
25 25 25 25 24 23 24 24 23 23 23 22 22 23 25 25 23 22 22 23 24 24 25 26 28 29 29 28 26 24 25 22 18 15 17 19 17 17 22 24 22 20
26 26 26 26 26 25 26 25 24 24 23 23 23 24 24 24 22 21 21 22 23 24 25 26 29 31 30 30 29 27 27 27 21 17 17 19 18 18 20 22 21 20
28 28 28 27 27 27 26 26 25 25 24 24 23 23 23 21 20 19 19 19 21 22 24 25 28 30 30 31 32 30 30 30 26 21 19 18 18 18 20 21 21 21
29 30 30 30 29 29 28 27 26 26 25 24 22 21 20 18 17 16 16 16 17 18 20 22 24 26 26 28 31 32 33 33 31 26 22 20 19 19 20 21 22 23
31 32 32 31 31 30 29 28 27 25 24 22 21 19 17 15 14 14 12 12 14 16 17 18 19 20 20 21 24 28 32 35 35 31 26 24 21 21 22 23 24 24
34 34 34 33 32 31 29 27 26 25 22 21 20 18 16 14 12 11 10 9 10 12 14 15 16 15 16 17 18 22 28 33 36 35 31 28 25 23 23 24 25 25
36 35 34 33 32 31 29 27 25 24 22 21 19 17 15 14 12 10 9 8 9 9 9 10 11 10 11 12 13 16 21 27 33 36 35 32 29 27 25 25 26 26
36 35 34 33 32 30 28 26 25 23 21 19 18 16 15 14 13 12 11 10 10 11 11 10 7 4 6 8 10 12 15 20 27 33 35 35 33 31 29 27 27 26
36 35 34 33 32 29 27 26 24 22 21 19 18 17 16 15 15 14 13 12 12 12 12 11 10 6 3 4 7 9 11 15 21 26 30 34 34 33 31 29 28 27
35 34 34 33 31 29 27 25 23 22 21 20 19 17 16 15 14 13 12 11 10 11 11 10 9 7 5 4 5 8 10 14 17 20 23 27 29 30 29 27 26 27
34 33 33 32 30 29 26 24 23 22 20 19 18 15 14 14 14 12 11 10 10 10 10 9 7 7 6 6 7 9 11 12 15 17 21 22 22 22 22 22 22 22
31 31 31 30 29 27 24 23 22 20 19 18 17 15 14 13 13 13 12 11 11 11 10 10 9 6 5 5 4 5 8 8 7 10 15 19 20 20 19 19 19 19
29 29 29 29 28 25 23 22 20 19 18 17 16 15 13 13 14 14 14 12 11 11 11 11 11 9 7 6 5 3 4 5 4 4 6 10 13 15 16 17 18 20
27 27 26 27 27 24 22 21 20 20 19 18 17 15 12 13 15 15 15 13 12 12 12 12 13 12 9 9 9 7 6 6 7 7 7 8 10 12 13 15 18 19
Wind_Direction
301 297 296 297 296 296 294 286 280 281 285 286 287 288 287 285 285 288 288 283 276 273 275 278 282 285 282 275 269 265 259 252 248 245 246 250 251 247 245 246 246 247
299 299 300 300 297 292 287 283 282 284 286 287 287 287 286 286 287 288 285 278 273 272 274 279 284 283 278 272 269 266 261 255 249 246 246 247 249 247 245 246 245 244
302 304 303 297 291 286 283 285 289 292 294 293 291 289 288 289 287 284 278 273 272 273 275 280 281 277 273 271 272 269 262 255 248 244 245 245 245 245 244 245 245 241
308 306 300 289 284 286 288 293 295 296 296 295 292 287 282 278 275 274 273 272 272 272 273 273 268 264 264 265 270 271 265 256 247 243 244 244 245 244 242 241 240 237
309 304 298 292 292 294 297 299 299 295 293 292 290 286 279 275 273 273 272 270 269 269 268 266 262 258 258 259 263 267 265 255 246 242 240 241 243 242 240 236 234 232
309 304 302 301 301 302 302 300 297 294 294 294 292 290 287 283 279 277 277 276 274 272 267 263 260 258 257 259 263 263 260 253 245 240 238 239 240 241 238 233 230 231
309 304 303 303 303 303 302 300 297 295 296 296 295 293 290 286 283 282 282 281 278 275 268 260 259 261 261 264 266 262 257 254 248 242 238 236 237 241 239 230 229 231
308 306 306 307 306 304 303 303 301 299 299 298 298 297 294 288 284 281 281 279 277 273 266 261 262 264 264 263 262 258 252 249 249 247 243 237 235 240 240 231 228 230
312 312 311 309 308 307 306 305 304 303 303 301 300 300 299 295 288 285 281 276 276 276 268 262 261 259 258 257 256 254 247 241 242 248 249 243 237 238 237 233 230 231
316 314 312 311 309 308 307 306 305 305 303 301 299 298 296 294 289 285 280 273 274 279 270 259 254 253 253 252 253 254 251 241 234 241 249 247 242 238 234 231 231 232
318 316 314 312 311 308 307 307 305 304 301 299 298 295 293 291 286 280 276 270 267 269 266 258 252 251 251 250 249 251 254 249 234 233 245 248 244 237 229 227 230 232
319 318 316 314 313 310 309 308 307 304 302 300 298 295 295 295 289 283 277 271 267 265 265 262 257 254 253 251 247 247 252 254 244 233 233 239 244 237 228 227 230 230
320 320 318 317 315 314 312 311 309 307 304 302 299 297 296 297 294 287 279 272 268 264 263 262 260 257 254 252 247 243 246 251 251 240 230 229 234 230 222 224 227 225
322 321 319 318 317 316 314 313 311 308 305 302 301 301 300 300 298 294 284 273 267 264 262 260 259 257 255 252 249 242 242 248 251 247 237 230 224 216 212 217 221 222
323 322 321 321 320 319 318 316 314 313 311 309 309 308 307 305 302 296 288 278 270 265 263 262 260 259 256 253 250 244 242 246 251 250 245 239 229 220 215 216 219 222
325 326 326 327 328 328 327 326 324 324 323 321 319 318 316 313 306 299 291 284 278 273 269 267 266 264 261 256 251 245 241 244 249 250 248 245 240 232 226 222 223 225
332 333 334 335 337 339 338 336 336 336 334 331 329 328 325 320 314 307 300 291 284 280 278 277 275 272 269 263 254 246 240 241 246 248 247 247 245 241 233 228 228 230
339 339 339 342 344 344 343 343 343 342 341 339 337 336 334 331 329 323 316 308 296 288 284 280 280 280 276 270 260 247 239 239 243 246 246 246 247 246 239 234 233 236
343 342 343 346 347 346 347 348 348 347 347 346 344 346 346 346 348 346 344 341 329 321 313 299 290 286 282 277 266 250 239 237 240 244 245 245 246 246 243 239 239 242
346 345 346 348 348 349 351 352 351 351 353 352 352 355 358 0 3 4 6 7 0 356 358 359 351 315 286 282 271 255 244 238 238 240 242 244 245 245 246 246 245 247
347 347 348 349 351 354 355 354 355 357 358 358 0 3 5 7 10 11 12 14 14 9 5 11 19 13 323 289 273 254 241 236 237 238 239 241 243 245 248 250 249 250
348 348 349 350 353 356 357 358 359 1 2 2 3 7 9 8 8 8 4 2 3 0 356 359 8 8 4 357 323 283 250 236 236 238 238 238 240 242 245 247 247 247
349 349 349 352 356 357 359 1 3 4 5 3 2 7 12 8 4 2 358 351 348 349 349 346 349 355 357 351 331 304 280 259 246 242 241 239 236 234 235 238 243 244
349 350 350 353 357 359 2 3 4 4 4 3 2 5 9 8 6 7 8 1 352 349 346 337 330 329 324 308 300 305 306 299 272 244 237 236 236 235 235 237 242 245
350 350 351 354 357 2 5 4 4 4 2 2 1 359 2 7 8 9 12 10 1 354 350 340 326 312 286 263 260 286 300 295 285 258 236 232 235 238 237 234 234 238
351 351 352 354 357 2 6 5 4 3 359 358 358 356 359 6 7 4 3 5 4 1 358 350 338 327 307 268 250 254 266 263 253 244 238 238 237 236 234 230 229 232
Height
1424 1421 1419 1416 1414 1412 1411 1409 1408 1407 1405 1404 1403 1402 1401 1401 1401 1401 1401 1401 1401 1401 1401 1401 1401 1401 1400 1400 1400 1400 1401 1401 1402 1403 1404 1405 1405 1406 1407 1408 1410 1410
1419 1417 1414 1411 1409 1407 1406 1405 1403 1401 1400 1399 1398 1397 1396 1396 1396 1396 1396 1396 1396 1396 1396 1396 1396 1396 1395 1395 1395 1396 1395 1396 1397 1398 1399 1400 1401 1402 1402 1404 1405 1406
1414 1412 1409 1407 1405 1403 1402 1401 1399 1398 1396 1395 1394 1393 1392 1392 1392 1392 1391 1391 1391 1391 1391 1392 1392 1392 1391 1391 1391 1391 1390 1391 1391 1393 1394 1395 1396 1397 1397 1399 1400 1401
1410 1407 1405 1403 1402 1400 1398 1397 1395 1394 1392 1390 1390 1389 1388 1387 1387 1386 1386 1386 1387 1386 1387 1387 1387 1387 1387 1387 1387 1386 1386 1386 1387 1389 1390 1390 1391 1392 1393 1394 1395 1396
1406 1404 1402 1400 1398 1397 1395 1393 1391 1390 1388 1387 1385 1384 1383 1383 1382 1382 1382 1382 1382 1382 1382 1383 1383 1383 1383 1383 1383 1382 1382 1382 1382 1384 1385 1385 1387 1388 1389 1390 1391 1392
1403 1401 1399 1397 1395 1393 1391 1389 1388 1386 1384 1383 1381 1380 1379 1379 1378 1378 1378 1377 1377 1377 1377 1378 1378 1379 1379 1379 1379 1378 1378 1378 1378 1380 1380 1381 1383 1384 1385 1386 1386 1388
1400 1398 1395 1393 1391 1389 1388 1386 1384 1383 1381 1379 1378 1376 1375 1375 1374 1374 1374 1373 1373 1373 1373 1373 1374 1375 1375 1375 1375 1374 1374 1374 1375 1376 1376 1377 1378 1379 1380 1381 1382 1384
1397 1394 1392 1390 1388 1386 1384 1382 1381 1379 1377 1375 1374 1372 1371 1371 1370 1370 1370 1369 1369 1368 1368 1369 1370 1370 1370 1370 1370 1370 1370 1370 1371 1372 1372 1373 1374 1375 1376 1377 1379 1380
1395 1392 1390 1388 1385 1383 1381 1379 1377 1375 1374 1372 1370 1369 1368 1367 1367 1366 1366 1365 1365 1365 1365 1366 1366 1365 1366 1366 1366 1366 1366 1366 1367 1368 1369 1369 1370 1371 1373 1374 1375 1377
1393 1390 1388 1385 1383 1381 1378 1376 1375 1373 1371 1369 1367 1366 1365 1364 1364 1363 1362 1362 1361 1361 1361 1361 1360 1361 1361 1362 1362 1362 1362 1363 1363 1364 1365 1366 1367 1368 1369 1371 1372 1373
1391 1388 1386 1384 1381 1379 1376 1374 1372 1370 1368 1366 1365 1363 1362 1361 1360 1359 1359 1358 1357 1357 1356 1356 1357 1357 1358 1358 1358 1359 1359 1359 1360 1360 1361 1362 1363 1364 1366 1367 1368 1370
1389 1387 1384 1382 1379 1377 1374 1372 1370 1368 1366 1364 1362 1361 1359 1358 1356 1355 1355 1354 1354 1353 1353 1353 1354 1354 1354 1354 1355 1356 1356 1356 1357 1357 1358 1359 1360 1361 1363 1364 1365 1367
1388 1385 1383 1380 1377 1374 1372 1370 1367 1365 1363 1361 1359 1358 1356 1354 1353 1351 1351 1350 1350 1349 1349 1350 1350 1350 1351 1351 1352 1353 1353 1354 1354 1355 1356 1356 1357 1358 1360 1361 1363 1364
1386 1383 1381 1378 1375 1372 1370 1367 1365 1363 1361 1358 1356 1354 1352 1351 1349 1348 1347 1346 1346 1345 1345 1346 1346 1346 1347 1348 1348 1350 1350 1351 1352 1352 1353 1354 1354 1355 1357 1359 1360 1362
1384 1381 1378 1376 1373 1370 1367 1365 1362 1360 1358 1356 1353 1351 1349 1348 1346 1345 1343 1342 1342 1342 1341 1342 1341 1342 1343 1344 1345 1346 1347 1348 1349 1350 1351 1351 1352 1353 1354 1356 1357 1359
1383 1379 1376 1373 1371 1368 1365 1362 1360 1357 1355 1353 1350 1348 1346 1345 1343 1342 1341 1339 1339 1338 1338 1338 1337 1337 1338 1339 1340 1342 1343 1344 1345 1346 1348 1348 1349 1350 1351 1353 1355 1357
1381 1377 1374 1371 1368 1365 1363 1360 1357 1355 1352 1350 1348 1346 1344 1342 1341 1339 1338 1337 1336 1335 1335 1334 1334 1334 1334 1335 1336 1337 1339 1340 1341 1343 1344 1346 1347 1348 1349 1350 1352 1354
1379 1375 1372 1369 1366 1363 1360 1358 1355 1353 1350 1348 1346 1344 1342 1340 1339 1337 1336 1335 1334 1333 1332 1331 1331 1331 1331 1331 1331 1332 1334 1336 1337 1339 1341 1342 1344 1345 1346 1348 1349 1351
1377 1374 1370 1367 1364 1361 1359 1356 1354 1351 1349 1346 1344 1342 1340 1338 1337 1336 1335 1334 1333 1331 1331 1330 1329 1329 1329 1328 1328 1329 1331 1332 1333 1334 1336 1338 1340 1342 1343 1345 1346 1348
1376 1372 1369 1366 1363 1360 1357 1354 1352 1350 1347 1345 1343 1341 1339 1337 1336 1335 1334 1333 1332 1330 1329 1328 1328 1327 1327 1327 1327 1327 1328 1329 1330 1331 1333 1334 1336 1338 1340 1341 1343 1344
1374 1371 1367 1364 1361 1358 1356 1353 1351 1348 1346 1344 1342 1340 1338 1337 1335 1334 1333 1332 1331 1329 1328 1327 1327 1326 1326 1326 1325 1325 1326 1326 1327 1328 1329 1330 1332 1334 1336 1337 1339 1340
1374 1370 1366 1363 1360 1357 1355 1352 1350 1347 1345 1343 1341 1339 1338 1336 1335 1334 1332 1331 1330 1329 1328 1326 1326 1325 1325 1324 1324 1324 1324 1324 1324 1325 1325 1327 1328 1330 1332 1334 1335 1337
1373 1369 1366 1363 1360 1357 1355 1352 1349 1347 1345 1343 1341 1339 1338 1336 1335 1334 1332 1331 1330 1329 1327 1326 1325 1324 1323 1323 1323 1323 1322 1322 1322 1322 1323 1324 1325 1327 1329 1331 1332 1333
1373 1370 1366 1363 1360 1358 1355 1352 1350 1348 1346 1344 1342 1340 1338 1337 1335 1334 1333 1331 1330 1328 1327 1325 1324 1323 1323 1322 1322 1322 1321 1320 1320 1320 1321 1322 1323 1325 1326 1328 1329 1330
1373 1370 1367 1364 1361 1358 1355 1353 1351 1349 1346 1344 1342 1340 1339 1337 1336 1334 1333 1331 1330 1328 1327 1325 1324 1323 1322 1322 1321 1321 1320 1320 1320 1320 1320 1321 1322 1323 1324 1326 1327 1328
1373 1370 1367 1364 1361 1358 1356 1353 1351 1349 1347 1345 1343 1341 1339 1338 1336 1334 1333 1331 1330 1328 1327 1325 1323 1322 1321 1320 1320 1320 1319 1319 1319 1320 1320 1320 1321 1322 1323 1324 1325 1326